RH
58 60 61 59 58 59 58 56 60 61 58 58 56 55 56 53 54 59 60 59 58 59 61 59 54 52 50 48 51 53 54 54 53 50 47 46 46 44 41 44 47 43 44 47 43 44 48 46 46 45 41 39 37 34 33 32 30 30 30 29 27 28 31 39 51 53 42 34 35 35 34 35 36 35 34 32 33 35 39 42 44 45 42 40 41
62 64 62 62 62 61 62 62 61 64 65 61 58 59 64 66 65 61 59 60 58 57 59 57 53 54 53 52 51 52 54 54 50 46 47 48 47 46 46 45 43 40 42 46 44 46 51 49 47 44 39 39 40 39 40 39 35 34 32 33 37 36 35 41 49 52 46 39 37 37 34 35 36 36 37 37 37 38 42 45 45 44 42 39 37
65 68 65 63 65 65 68 71 71 72 70 65 62 64 69 75 73 65 60 58 57 58 58 55 55 56 54 53 53 54 57 54 48 46 49 52 49 49 49 45 42 39 40 42 41 45 52 50 47 45 44 47 48 47 52 51 43 38 36 38 41 40 40 47 51 53 54 49 43 39 38 39 40 40 40 40 40 39 40 42 44 44 43 41 38
67 69 66 66 74 77 74 71 72 73 68 65 67 67 67 68 66 65 66 62 59 60 60 58 57 54 52 53 54 55 58 56 53 55 56 55 53 52 49 47 45 43 43 43 41 47 53 49 47 52 56 58 57 54 55 53 48 43 40 42 44 44 47 52 53 54 58 58 52 48 47 46 44 46 52 52 48 45 43 43 46 46 45 44 41
64 66 68 75 80 78 73 70 70 70 69 70 70 67 67 68 66 68 68 65 63 62 60 58 54 50 49 53 55 56 59 60 58 59 59 55 54 52 49 51 52 50 50 49 47 51 52 47 47 55 61 59 57 56 53 52 53 48 46 52 57 57 58 59 57 57 60 61 59 56 54 54 54 56 60 62 59 56 53 50 53 57 54 51 46
65 72 76 79 76 75 77 76 73 72 72 73 73 69 71 73 72 72 69 66 66 63 59 55 53 53 51 52 56 56 57 57 52 50 52 48 47 50 52 55 56 54 53 51 51 53 51 50 54 59 63 62 59 58 57 57 60 57 58 66 69 68 68 66 63 62 63 64 66 68 68 66 68 69 65 63 64 65 63 57 57 63 64 62 56
74 82 82 79 76 79 84 79 73 75 76 75 76 75 73 71 72 74 72 68 66 62 58 53 52 55 53 51 55 55 53 53 48 44 45 42 41 49 55 57 57 54 53 52 53 55 54 55 59 62 69 72 69 69 69 69 69 69 71 75 76 76 76 72 69 68 68 70 73 78 79 75 74 76 76 74 72 70 72 73 71 71 72 71 67
83 86 83 83 84 86 86 83 81 80 80 79 76 72 69 69 73 77 74 68 64 61 57 52 51 54 53 50 53 54 52 54 51 42 34 31 40 54 57 54 54 53 52 53 56 58 57 57 62 70 75 76 75 77 80 79 78 78 80 82 82 81 80 77 76 75 73 74 76 79 82 82 79 76 75 77 79 78 78 81 83 79 76 75 73
89 87 83 85 90 89 87 89 88 85 82 79 75 71 69 70 76 79 76 70 65 61 56 54 55 55 52 48 49 52 54 55 49 35 25 29 46 62 61 52 50 53 54 54 56 58 60 62 69 76 78 75 76 80 83 84 83 82 82 84 86 86 85 84 80 78 75 75 79 82 83 84 84 81 80 80 84 84 81 82 86 83 78 76 73
90 89 89 87 87 89 88 89 90 91 88 80 77 79 77 76 79 80 77 73 69 63 58 56 56 55 53 50 49 52 55 54 44 29 28 42 55 65 65 54 49 52 54 55 55 59 66 70 71 75 78 78 76 76 78 80 80 81 81 84 88 88 87 86 83 81 79 78 82 85 85 85 83 84 87 84 81 82 81 83 87 83 80 81 75
85 85 91 91 89 91 91 88 88 91 91 86 85 87 83 81 84 83 80 75 69 64 60 56 54 53 51 51 55 57 53 48 41 30 34 49 56 60 62 55 48 50 53 54 56 61 70 74 73 73 79 81 76 74 76 77 77 77 78 82 87 88 89 90 89 87 83 84 86 84 84 86 82 81 84 82 81 81 80 81 83 83 84 87 84
88 88 93 95 94 95 93 91 89 90 94 93 91 90 88 86 86 85 81 76 70 64 60 56 54 51 48 51 60 60 47 38 34 30 38 52 55 55 58 54 49 51 54 54 59 68 73 75 75 74 79 81 75 73 76 76 76 78 79 83 86 86 88 88 89 88 86 90 94 89 86 86 84 83 84 83 84 85 83 82 82 83 86 89 91
93 93 93 95 98 97 95 93 89 86 89 91 90 92 94 93 90 88 83 75 70 65 58 55 52 48 46 53 62 59 46 40 35 28 37 53 55 51 55 54 48 51 57 59 66 75 75 75 74 74 81 82 71 67 67 65 74 83 82 84 85 82 84 86 87 90 90 91 96 94 88 85 85 85 86 88 88 86 86 87 86 86 87 89 90
93 92 90 94 98 96 95 95 93 90 90 90 90 91 95 95 92 90 83 75 71 65 58 55 53 46 42 50 61 59 50 51 48 33 31 45 54 53 54 53 47 48 56 62 70 75 73 74 73 71 82 83 69 64 61 59 74 86 82 82 83 79 83 86 85 87 88 87 91 91 86 83 85 87 87 88 88 89 90 90 89 91 89 87 86
89 90 89 92 95 95 95 95 96 96 95 94 92 89 92 93 89 84 78 75 73 66 57 54 51 47 45 50 59 59 55 57 58 45 30 33 49 57 54 50 48 48 54 60 68 73 75 75 71 69 79 80 66 62 62 61 75 85 80 80 80 79 85 88 83 83 84 84 87 90 87 84 82 84 84 82 82 87 90 89 90 93 90 87 85
86 88 89 91 92 94 94 93 95 95 94 95 94 92 93 93 88 81 75 75 73 62 54 54 49 46 48 49 53 58 60 59 60 53 36 28 44 60 57 51 50 50 54 60 65 72 77 78 73 72 78 74 62 62 65 68 78 84 81 81 79 77 83 85 82 84 86 85 85 86 86 84 81 80 80 82 84 85 87 87 89 91 91 89 87
85 87 89 89 90 92 91 91 93 93 91 91 92 91 91 91 90 83 76 75 69 56 52 53 48 46 47 46 49 60 66 63 59 55 42 28 40 62 64 57 54 51 52 58 63 72 79 81 77 75 74 67 62 65 70 75 84 87 83 83 81 78 80 83 86 89 89 87 83 81 83 83 81 80 80 84 87 87 90 92 90 90 92 92 89
87 88 90 86 85 87 89 90 92 90 88 89 90 88 84 83 86 82 75 71 63 55 55 52 48 51 50 43 46 60 68 66 60 58 48 32 36 60 69 63 58 56 54 55 61 73 83 84 77 70 66 64 64 70 74 78 87 90 84 81 81 80 81 86 90 90 88 86 83 83 85 82 78 80 84 88 90 90 94 96 93 92 94 94 92
89 90 90 85 82 83 86 89 92 89 88 88 88 85 81 82 84 80 72 66 58 54 55 51 49 55 52 45 48 60 68 67 64 64 55 37 36 57 71 66 58 58 59 54 58 71 82 85 79 68 64 66 68 72 76 78 85 89 85 82 83 83 84 87 90 91 89 85 84 85 86 85 83 84 86 87 86 87 93 95 92 93 95 95 94
88 87 86 83 80 81 83 87 89 91 92 91 89 87 84 82 79 72 65 61 56 54 53 50 50 55 55 52 54 62 68 67 68 69 56 39 39 52 64 67 60 60 63 57 54 65 74 82 84 72 64 69 74 74 76 78 83 86 83 82 86 86 84 86 89 91 87 82 83 86 85 87 91 88 85 86 84 84 92 94 93 93 94 95 94
84 82 82 81 79 80 82 85 87 89 88 87 88 87 81 75 69 64 62 61 57 54 52 49 50 55 59 58 56 61 67 66 71 71 52 39 45 49 53 65 64 61 65 61 56 64 70 77 82 73 64 72 77 76 77 79 83 83 80 81 85 85 83 85 88 89 86 83 86 87 84 87 92 90 89 91 90 90 93 94 94 94 95 96 96
80 79 82 82 80 79 79 81 85 86 83 85 87 81 71 66 63 61 62 59 54 53 51 50 53 57 60 60 55 59 68 68 72 71 50 42 56 56 52 60 61 62 70 67 62 67 69 70 75 71 68 76 79 78 80 81 82 82 78 79 83 83 82 84 86 87 88 87 87 86 84 86 91 91 91 92 90 90 93 95 96 96 95 97 99
79 79 81 81 79 78 77 78 83 87 87 87 83 71 62 62 62 59 58 56 54 55 53 54 59 60 59 58 55 59 69 73 74 69 54 52 64 63 57 58 57 62 74 72 66 68 68 68 72 72 72 78 79 80 82 80 79 80 78 78 81 81 81 83 85 85 86 87 88 88 89 92 93 92 93 93 91 90 93 96 97 96 94 95 100
78 79 80 80 79 79 78 78 82 87 89 86 76 65 62 63 62 59 59 58 58 59 58 59 60 59 57 57 55 58 68 73 73 69 61 60 65 65 64 64 59 60 70 72 68 69 67 68 71 72 73 77 79 82 84 80 76 77 76 76 79 79 81 83 84 84 84 85 89 93 94 96 96 94 94 94 92 92 94 95 96 96 95 95 98
76 78 79 79 80 80 78 78 81 84 85 81 72 65 63 63 62 61 61 61 61 60 60 59 57 56 57 56 55 60 67 71 71 70 66 65 67 67 66 65 63 66 70 70 67 67 66 68 70 71 73 74 76 81 82 76 74 76 75 76 78 78 80 83 84 84 84 84 88 92 94 95 94 92 92 92 91 91 92 91 90 91 94 94 95
75 76 78 77 78 79 78 76 77 81 82 76 66 62 61 59 59 61 60 58 59 60 59 56 52 51 53 53 54 61 68 70 70 69 65 62 66 69 68 65 67 75 78 75 70 67 66 69 70 68 69 71 74 77 75 71 72 74 73 75 77 77 78 81 83 84 85 85 87 89 92 93 91 89 88 88 88 89 89 89 88 89 91 92 94
74 75 77 77 76 76 75 73 72 75 76 67 56 53 54 50 51 57 57 52 51 53 53 50 43 39 43 51 57 61 65 66 66 65 60 53 56 67 70 62 63 70 73 72 71 69 68 71 70 66 66 68 70 71 69 69 71 72 72 74 76 76 78 80 81 83 85 86 86 87 88 88 88 88 88 88 88 88 87 87 87 86 86 88 90
74 72 73 74 75 74 73 71 70 69 68 62 53 50 50 48 50 54 52 47 45 43 40 39 36 30 34 49 58 60 61 63 63 62 54 42 44 56 58 54 58 64 64 65 69 70 70 70 68 64 64 64 64 64 65 66 69 71 72 73 74 76 78 80 81 81 82 83 84 85 86 86 86 87 88 89 89 88 85 84 84 84 84 85 86
75 73 73 73 73 73 72 70 68 67 66 64 62 57 53 51 55 56 51 47 47 43 37 36 32 26 32 44 48 49 58 63 59 52 42 31 31 39 41 46 59 65 62 63 66 68 69 68 62 59 60 60 60 61 62 63 66 69 72 73 75 76 78 80 82 80 79 81 82 83 85 87 87 87 87 89 90 87 83 82 84 85 86 87 89
72 70 70 71 71 70 68 65 66 68 67 65 64 62 56 53 54 55 52 50 50 47 42 37 29 24 35 46 41 39 53 58 47 39 37 33 33 35 35 43 55 59 58 59 59 62 68 66 56 52 55 57 58 61 62 62 64 66 68 72 76 78 78 80 83 81 78 80 83 84 84 86 87 87 87 88 89 87 84 82 82 84 86 89 93
71 65 65 69 71 69 64 61 65 70 69 68 67 65 61 57 52 49 48 49 53 53 49 43 32 25 34 45 39 34 43 46 37 35 39 40 40 39 39 43 51 54 55 57 56 59 64 62 53 51 54 56 59 62 62 61 62 64 66 70 76 79 78 80 82 81 79 79 82 83 83 84 86 87 87 87 87 86 85 84 82 82 84 87 91
73 68 66 68 72 71 66 63 67 68 67 69 69 64 60 57 54 51 48 48 54 59 57 50 38 26 26 36 38 32 31 34 36 38 41 45 47 44 42 46 51 53 54 56 59 61 60 55 53 53 54 56 60 63 64 61 60 62 65 69 75 79 80 81 82 81 79 79 80 81 83 83 84 84 85 87 86 83 84 85 84 82 84 86 87
76 75 73 73 74 74 71 68 68 67 67 70 70 66 61 59 57 56 53 51 55 62 63 56 43 27 21 27 35 34 30 30 37 42 45 50 52 48 46 50 54 55 55 55 60 61 56 51 53 56 57 58 60 62 64 62 61 62 64 68 75 78 78 79 80 80 79 80 79 81 83 83 82 82 83 84 84 82 81 83 83 81 82 84 85
78 78 78 78 78 78 76 72 67 65 67 71 72 70 67 64 63 64 63 60 59 62 63 59 46 31 20 19 25 32 34 35 40 46 50 53 53 51 50 50 52 57 57 55 57 59 55 51 54 56 57 59 60 62 64 63 63 65 67 68 74 77 76 75 77 79 79 80 80 81 83 82 81 81 82 82 82 80 78 79 80 80 80 82 83
74 75 76 80 82 82 81 78 72 67 67 71 73 74 72 69 68 68 68 67 65 64 63 60 49 36 26 21 22 26 31 36 43 50 53 54 54 54 52 49 52 59 61 58 59 58 53 51 54 55 57 61 63 63 63 63 65 68 68 67 71 75 76 76 79 80 79 78 80 82 82 81 80 81 81 81 80 80 78 78 78 79 79 81 82
68 70 72 77 81 83 84 85 83 78 75 73 74 74 73 72 70 69 70 71 73 72 70 63 53 40 30 26 26 26 29 36 45 50 54 55 55 55 54 52 56 60 61 61 62 58 50 49 53 55 58 62 63 61 61 63 66 68 67 66 68 73 77 79 80 81 79 78 81 83 82 82 83 82 80 80 79 78 78 77 77 78 79 80 81
70 70 73 77 80 81 83 86 87 83 80 77 75 73 73 74 73 73 73 73 75 78 76 66 54 44 34 30 31 31 31 36 42 48 51 52 53 54 53 51 54 57 54 52 54 52 47 49 54 56 58 61 62 61 60 60 63 66 67 69 70 73 78 80 79 78 79 80 82 83 82 82 84 83 81 80 79 78 78 77 78 79 79 79 80
71 68 69 74 77 77 76 78 80 80 78 79 79 77 76 75 73 73 75 75 74 78 78 67 56 48 42 37 36 35 35 38 41 44 46 46 48 52 52 48 52 57 53 47 48 48 47 49 53 55 57 60 63 63 59 57 58 60 64 68 71 71 76 80 79 77 78 80 82 82 81 82 83 82 81 80 78 77 78 78 78 79 79 79 79
68 67 65 65 69 73 72 71 73 74 73 75 78 77 76 74 72 71 74 76 74 76 78 72 64 58 52 47 43 39 38 41 43 44 45 45 46 49 52 52 56 57 51 45 46 48 48 50 53 55 58 61 64 63 59 56 56 56 57 62 66 67 71 76 77 77 77 79 80 81 82 83 83 82 81 80 78 77 78 78 78 77 78 79 79
56 59 59 56 58 64 66 64 64 67 66 67 70 71 70 71 72 71 71 72 71 73 76 75 72 68 62 56 49 43 44 48 52 52 53 53 52 53 56 59 58 53 47 43 44 47 49 51 54 57 60 62 63 62 59 56 55 53 52 53 57 63 70 74 75 76 77 77 79 80 82 82 82 81 80 79 78 78 77 77 77 77 77 78 79
43 43 46 47 49 52 51 50 54 60 63 63 64 64 65 67 69 69 69 68 67 68 71 71 71 72 69 62 55 51 52 55 55 51 48 48 50 53 56 56 52 49 47 45 43 45 48 49 51 56 60 61 61 61 59 56 53 51 50 48 51 60 68 71 72 75 76 77 78 80 82 82 81 80 79 78 77 77 76 75 76 76 76 76 77
39 35 36 38 40 41 41 42 45 49 52 55 57 61 65 68 68 67 68 68 66 65 65 66 69 71 69 62 56 54 54 54 52 49 45 43 42 44 47 48 48 48 48 43 41 46 50 51 51 53 56 58 60 59 58 55 52 51 51 49 48 55 63 69 71 73 75 76 77 77 79 81 79 77 77 76 75 74 74 74 74 73 72 72 73
37 34 33 34 34 35 38 41 42 43 44 47 49 53 60 64 65 64 65 65 66 66 64 65 68 71 69 64 59 56 54 51 51 51 49 47 44 41 42 45 46 48 49 46 43 45 50 52 53 53 54 57 59 58 57 56 53 51 52 52 49 49 56 63 68 70 71 74 76 75 76 77 77 74 73 73 72 72 71 70 68 67 66 64 64
35 32 32 33 34 35 37 41 42 42 44 45 45 47 50 52 53 56 57 58 61 63 63 64 67 70 71 70 67 63 56 53 53 53 51 49 47 44 43 45 45 45 49 51 48 45 46 50 53 54 56 58 59 58 57 56 54 52 53 54 50 48 50 54 60 65 69 71 73 74 74 74 73 71 70 69 68 68 67 66 63 60 58 55 53
34 33 32 33 35 36 38 41 42 42 44 46 47 47 47 47 49 52 53 54 57 60 61 63 65 67 70 73 72 68 61 56 56 57 55 53 50 45 43 44 44 43 46 50 50 48 48 49 51 54 56 58 58 57 56 56 55 54 53 52 50 49 49 49 51 57 63 66 67 69 70 70 69 69 68 65 62 59 58 57 55 53 52 51 50
36 35 35 35 36 37 38 41 43 43 44 47 47 46 46 47 49 49 50 53 55 57 60 61 62 62 65 68 71 72 70 65 62 61 59 56 53 48 44 43 42 42 45 49 49 48 49 49 49 53 56 58 57 56 56 56 56 55 54 53 51 50 50 50 49 51 54 58 59 62 64 63 62 62 61 58 54 51 50 49 48 48 48 48 48
38 38 37 36 37 38 39 42 43 43 44 45 45 44 45 47 48 48 50 52 53 54 56 58 59 60 62 63 65 68 70 70 69 67 64 60 57 53 49 45 42 42 46 49 50 50 51 50 48 51 56 59 58 57 58 58 57 56 56 55 53 51 51 52 50 48 48 50 53 55 56 55 54 54 53 52 50 49 49 48 48 48 48 48 48
38 39 38 37 38 39 40 41 41 42 44 44 44 44 46 48 49 50 51 52 52 53 54 55 56 59 60 61 61 62 63 64 66 67 66 64 61 58 56 51 45 42 44 48 50 52 53 52 50 51 56 60 59 59 60 59 57 56 57 55 54 54 53 52 51 50 48 47 48 49 50 51 51 51 51 50 50 50 50 49 49 48 48 48 47
40 40 39 39 39 39 41 42 42 43 45 46 46 48 50 51 51 52 54 54 55 55 56 57 58 58 58 58 59 60 61 63 65 66 67 67 66 64 61 57 52 48 46 47 49 51 53 53 52 52 56 60 61 60 61 61 58 57 57 56 56 56 55 53 54 54 51 47 46 47 47 48 49 49 49 50 49 49 48 48 48 47 46 46 46
42 40 39 41 41 41 43 43 43 44 46 48 50 51 52 54 54 54 56 58 58 59 61 63 64 63 63 63 64 65 66 67 68 69 70 71 71 69 66 62 60 56 50 46 48 51 53 55 55 54 56 60 62 62 61 60 58 58 58 57 57 57 55 53 53 55 52 49 48 47 45 46 47 47 47 48 48 47 47 47 46 46 46 46 45
43 41 41 42 43 44 45 45 45 47 48 50 52 53 54 56 57 57 59 62 64 65 67 69 69 70 71 73 73 73 73 73 73 73 74 76 77 76 73 71 69 67 60 52 50 51 53 56 59 58 57 59 61 62 63 61 58 58 59 58 57 58 57 53 52 52 51 51 53 51 47 45 46 46 45 46 47 47 47 47 46 47 48 46 45
Wind_Speed
2 3 2 1 2 3 2 1 1 1 4 6 4 3 6 6 9 9 8 8 7 6 6 5 7 8 8 10 12 14 13 11 12 13 13 13 13 13 14 14 14 12 10 11 11 11 12 11 11 12 12 10 11 11 12 12 11 11 9 6 10 11 5 2 2 3 6 9 11 13 14 15 17 15 11 10 12 12 10 10 10 11 12 12 13
2 3 2 1 2 4 4 4 5 7 10 11 9 7 11 12 10 9 7 8 8 7 7 7 8 8 8 10 11 12 11 10 12 13 12 12 13 13 14 14 15 14 13 14 13 13 12 12 13 14 13 13 13 12 15 16 14 14 15 16 18 20 17 16 14 10 8 11 12 14 14 13 13 15 16 15 15 14 12 12 12 12 13 14 15
2 2 1 1 1 4 7 9 11 13 12 10 9 9 10 13 13 9 5 8 10 9 9 9 8 7 8 10 10 11 12 12 13 12 12 13 13 13 13 14 14 14 15 15 13 13 13 12 14 14 14 15 15 15 19 22 19 15 15 18 20 20 19 19 17 13 11 13 14 13 14 15 16 18 19 19 18 17 14 12 12 13 12 13 16
2 2 2 2 8 11 11 9 8 9 9 8 7 5 4 8 11 9 6 7 9 8 8 8 6 6 8 10 11 11 13 14 13 12 12 12 12 12 13 13 13 13 14 14 12 13 14 13 13 14 16 17 16 16 17 20 20 17 15 16 18 17 17 17 16 13 12 12 14 14 15 17 17 16 16 17 18 16 13 11 12 14 14 13 14
2 2 3 10 12 9 5 2 2 4 7 9 8 5 6 10 11 10 7 7 8 7 6 6 7 9 10 10 11 11 12 13 12 12 12 12 12 11 11 12 12 12 12 12 11 12 13 12 11 13 15 15 15 15 16 17 17 17 16 17 17 17 17 17 17 16 13 12 12 14 15 16 15 14 15 16 17 16 14 13 14 16 17 15 13
1 5 10 11 6 2 2 2 2 3 4 7 7 6 7 9 10 9 7 7 6 5 5 6 8 10 10 10 10 11 12 12 11 12 12 12 11 11 11 11 11 11 12 13 13 13 13 13 14 15 14 14 14 13 14 14 14 14 15 15 15 16 16 16 17 16 14 13 12 14 15 15 15 16 16 15 14 14 15 15 16 16 16 17 16
5 10 10 6 2 2 3 2 2 3 4 6 6 6 6 6 8 8 7 7 4 2 4 5 7 11 10 9 9 10 11 12 12 13 13 12 11 10 10 10 10 11 13 15 15 14 13 13 14 14 13 13 14 13 12 12 12 13 13 13 13 13 13 13 13 14 13 12 11 11 14 15 14 13 14 13 10 10 10 12 14 16 15 15 16
7 8 4 3 4 4 2 1 3 4 6 8 7 5 5 5 7 8 8 8 6 5 7 7 9 12 10 8 9 11 12 13 13 14 14 12 10 9 9 9 8 11 13 13 13 12 13 12 13 13 12 12 12 11 11 11 11 11 11 11 11 11 12 11 12 12 12 11 10 10 11 12 11 11 11 10 9 9 9 9 11 15 16 15 13
9 6 2 2 4 4 2 2 3 4 6 6 5 4 3 5 7 7 8 7 7 8 8 7 8 10 9 7 9 11 12 13 13 14 14 12 10 9 9 9 8 9 10 11 10 10 11 11 12 12 11 11 11 11 10 10 11 11 12 12 11 11 11 11 11 12 11 11 11 11 11 10 11 13 12 9 7 9 9 9 9 12 15 16 15
8 4 3 2 3 4 3 1 2 4 4 3 4 4 4 6 7 7 8 7 7 6 5 6 8 9 8 6 8 10 11 12 13 14 13 11 9 8 8 10 9 9 10 10 10 10 11 11 12 11 10 11 12 12 12 12 12 12 13 12 11 10 11 11 11 12 11 11 11 11 10 9 10 13 14 11 8 8 9 8 9 11 11 12 13
4 1 2 3 3 4 3 1 3 5 4 3 5 5 6 7 7 7 8 7 6 5 5 7 9 9 6 5 7 10 11 12 14 15 12 9 8 9 10 11 9 10 11 10 10 10 11 12 11 10 11 12 13 13 13 13 14 14 13 12 10 9 9 10 11 11 11 10 11 11 10 10 10 10 10 11 10 10 11 10 10 10 9 7 8
6 3 3 5 7 5 2 1 3 6 7 7 7 5 6 7 6 7 8 6 4 4 5 7 8 7 5 5 8 9 11 14 16 15 11 7 8 10 11 11 8 10 11 9 9 10 10 11 11 10 10 11 13 14 14 14 15 15 15 13 11 9 7 8 9 11 11 11 10 10 10 10 11 10 10 11 12 11 12 11 9 8 8 6 6
8 6 5 6 8 6 2 1 1 5 7 8 8 7 6 5 5 7 6 5 4 3 5 7 7 5 4 5 8 8 9 14 17 15 10 6 7 9 11 12 8 8 9 8 8 9 9 10 10 9 9 10 14 16 16 17 16 15 15 14 13 12 10 8 8 8 10 10 9 11 12 12 12 13 12 11 11 11 11 10 9 8 8 8 8
7 7 8 8 7 8 6 1 2 5 7 7 8 8 6 5 6 8 7 5 4 4 4 8 6 4 3 3 6 6 6 11 15 17 12 6 6 9 11 10 7 6 7 7 7 7 8 9 10 9 8 10 15 17 18 19 17 15 16 15 16 15 12 9 9 8 9 10 10 12 14 14 13 14 13 11 10 10 10 10 9 9 9 10 11
7 6 6 7 6 8 9 6 6 7 7 7 8 8 7 6 7 9 8 7 5 4 5 10 7 5 3 1 4 6 4 8 12 16 16 8 6 11 12 7 6 7 7 7 6 6 7 7 9 10 9 12 15 16 18 19 16 15 15 15 16 15 12 10 10 10 10 10 11 12 13 13 13 13 12 11 11 10 9 9 10 9 10 11 11
5 5 5 6 5 6 8 8 8 9 8 7 7 8 8 7 7 8 8 6 5 3 7 8 5 4 2 1 2 6 5 8 10 15 17 11 7 12 13 8 6 8 6 6 4 4 5 5 7 8 9 12 14 16 18 18 15 15 16 15 15 14 12 12 12 12 13 13 13 13 12 11 10 9 10 10 10 9 8 8 8 7 9 9 8
4 5 5 5 5 5 6 6 7 8 8 8 8 7 8 8 7 7 7 5 2 4 9 8 5 5 2 3 4 5 4 8 10 13 16 13 9 12 13 10 8 8 7 5 3 2 4 5 6 7 8 11 15 16 17 16 14 15 16 15 14 14 14 14 14 13 14 15 14 12 10 9 8 7 8 8 8 8 7 7 7 7 8 6 5
4 5 5 5 6 6 5 6 7 6 7 8 8 7 7 8 8 6 6 4 5 7 8 6 5 4 2 3 4 5 4 8 10 11 15 13 10 10 11 10 9 9 9 7 2 3 5 5 6 8 9 12 15 15 16 16 15 15 15 14 13 13 15 17 16 16 17 16 13 10 10 11 9 8 7 6 6 5 5 6 7 7 7 5 5
4 5 5 6 6 6 6 6 6 6 6 8 8 7 8 8 8 6 5 5 6 5 5 5 4 3 3 2 2 4 4 6 9 10 12 12 10 9 9 9 9 8 9 10 5 3 5 4 7 10 12 14 15 14 13 15 15 15 14 13 12 14 17 18 17 17 18 16 13 11 13 13 9 8 8 6 5 4 4 5 5 5 5 5 6
6 5 5 6 6 7 7 6 6 6 7 7 7 7 8 8 7 5 4 5 6 4 4 6 4 4 4 1 2 2 2 4 6 7 10 10 8 9 8 8 9 8 8 11 8 5 6 5 8 12 14 14 15 12 10 12 14 14 12 11 12 14 17 18 17 15 15 15 12 12 14 13 10 9 9 8 8 6 5 5 6 6 6 7 7
6 6 7 7 7 7 7 6 7 7 7 7 7 7 7 7 6 5 4 6 7 4 3 4 3 3 2 1 2 0 1 2 3 5 8 8 7 7 7 6 7 7 7 9 9 9 9 8 8 12 14 13 12 11 9 9 10 11 11 11 12 14 16 17 16 13 15 16 14 12 12 11 10 9 9 10 10 8 8 8 9 9 10 11 11
6 7 8 8 7 6 6 7 7 6 6 7 8 7 7 7 6 5 5 6 5 3 2 2 1 1 1 2 3 1 3 2 2 4 6 6 5 6 7 6 5 5 7 9 9 9 9 8 8 11 12 12 11 9 8 8 8 9 11 13 14 14 15 16 15 13 15 17 16 14 13 11 11 12 11 12 12 11 10 10 10 10 11 12 13
6 7 8 7 6 6 5 6 5 5 6 8 8 8 8 7 6 6 6 5 4 3 2 1 1 2 3 3 3 2 4 3 3 4 5 6 4 3 7 8 6 5 7 7 7 7 7 7 8 9 9 10 9 7 7 8 9 11 14 14 14 13 14 16 16 15 14 15 16 16 14 12 12 13 14 13 13 12 11 11 11 12 12 12 12
6 7 7 7 6 5 4 5 5 5 6 7 8 8 7 7 7 6 6 5 5 4 4 3 4 5 5 5 3 3 5 3 4 3 4 6 4 2 3 6 7 6 5 5 5 6 6 6 7 8 8 8 8 6 6 8 9 12 15 14 12 13 15 16 16 15 14 15 15 15 13 12 12 13 14 14 13 12 11 12 13 14 15 15 15
5 6 6 5 5 4 4 4 4 4 5 7 7 7 7 7 6 5 6 6 6 6 6 8 9 9 9 8 5 6 6 4 4 4 4 6 6 4 1 4 6 6 4 3 3 4 5 6 7 8 7 7 7 6 6 8 9 11 12 13 12 13 14 15 15 14 15 15 15 15 13 12 13 14 14 14 15 14 13 14 15 15 14 15 16
4 5 5 5 4 4 3 3 4 5 6 7 7 7 7 7 7 7 8 8 10 10 10 11 11 11 13 11 7 7 8 4 4 4 1 4 6 6 4 4 6 6 5 4 3 4 5 5 7 8 7 5 5 5 6 8 8 9 10 11 12 12 13 13 13 14 14 15 15 14 13 12 13 15 16 17 18 17 15 14 15 14 13 14 15
4 4 4 4 3 3 3 3 4 5 6 7 7 8 9 9 9 9 7 7 8 11 10 8 7 6 5 9 10 8 7 5 5 5 3 1 3 3 3 4 6 6 5 3 3 5 7 6 6 7 6 5 4 4 5 6 7 8 9 10 11 12 11 11 12 13 14 13 13 13 13 14 14 15 16 17 18 17 15 14 14 14 13 14 15
2 2 3 3 3 2 2 3 3 5 6 5 3 2 4 3 5 6 1 7 5 1 2 5 7 10 8 5 8 9 8 7 8 7 4 1 1 1 2 2 3 4 3 2 4 5 7 8 7 5 3 5 6 5 5 7 8 8 8 9 10 11 10 10 11 12 12 12 12 13 14 15 15 15 14 15 16 15 14 13 14 13 13 14 14
2 1 1 2 2 2 2 3 3 4 6 5 4 4 2 4 7 6 3 7 7 6 7 7 7 9 9 7 3 2 7 10 10 6 2 1 2 1 1 1 0 1 2 3 5 6 8 9 7 4 2 4 7 6 7 8 8 8 8 9 10 10 10 10 11 11 11 11 12 12 13 13 14 13 13 13 13 13 12 13 13 14 15 15 14
2 0 1 1 1 2 2 3 3 4 4 4 4 5 5 2 2 3 2 5 6 6 6 6 6 6 4 4 7 4 5 10 8 4 1 2 3 3 1 2 3 3 3 5 7 10 12 10 5 5 4 5 7 7 7 7 7 7 8 8 9 10 9 9 10 10 9 10 10 10 11 11 11 11 10 11 11 11 11 12 13 13 14 14 14
3 2 1 1 1 2 4 2 2 4 3 2 4 6 7 6 5 4 4 4 5 5 5 4 4 4 2 2 3 2 2 6 4 2 2 3 3 3 1 2 3 4 6 7 9 12 12 7 3 5 5 6 7 7 7 7 6 7 7 7 9 10 9 9 10 9 8 8 9 9 10 10 10 9 9 9 10 10 10 10 11 12 13 12 12
4 4 3 3 2 2 5 3 1 2 3 3 4 5 5 6 7 7 7 7 6 6 5 4 3 2 3 5 4 2 2 4 4 3 2 2 2 2 0 2 3 5 7 9 12 14 9 2 1 3 4 5 5 5 6 7 6 6 7 7 8 8 8 8 9 8 8 8 8 9 9 9 9 9 9 9 10 9 10 10 10 10 11 12 11
4 4 4 4 3 3 4 5 4 4 3 3 4 5 5 6 6 7 8 9 8 8 7 6 5 3 4 6 6 4 3 4 4 3 2 1 1 2 2 3 4 6 8 9 12 12 6 1 1 1 3 4 4 5 6 6 6 6 7 7 6 7 8 8 7 7 7 7 7 7 8 8 8 8 8 9 9 8 9 10 9 9 10 11 10
4 5 5 4 4 4 4 5 6 4 2 3 5 6 7 8 6 4 6 8 9 9 9 9 7 5 4 6 6 6 5 5 5 4 3 2 3 5 6 7 7 8 9 8 9 10 7 1 2 1 0 2 4 4 4 5 5 6 7 6 5 6 7 7 6 6 6 6 6 6 6 7 8 8 8 8 8 8 9 9 10 10 10 9 9
5 6 6 4 3 4 4 5 6 6 3 3 4 5 6 8 7 5 6 7 7 8 9 10 9 7 6 6 6 6 6 7 7 6 5 6 7 8 10 11 11 12 13 12 11 11 8 3 1 2 1 1 2 3 3 4 5 5 4 4 3 4 6 6 5 5 6 5 5 6 5 6 6 7 7 8 8 8 8 9 10 10 10 10 10
7 7 7 6 4 4 5 4 5 6 6 4 4 5 6 7 8 7 6 5 4 4 6 9 9 8 8 8 7 6 6 8 9 9 8 9 10 11 12 14 14 14 15 15 13 10 6 4 3 3 3 2 1 3 2 1 2 1 2 2 1 3 5 5 5 5 6 5 5 5 5 5 5 5 6 7 7 7 7 8 9 9 10 10 10
8 9 8 7 6 6 6 5 5 7 7 6 6 7 7 8 9 8 7 6 6 4 5 8 11 11 11 12 11 8 7 8 10 11 12 12 13 14 14 15 15 15 12 9 8 6 5 5 4 3 3 3 2 3 3 1 2 0 2 2 2 3 5 6 6 6 5 5 5 5 5 5 6 6 6 6 7 7 8 8 8 8 9 9 10
7 9 10 8 7 7 7 7 6 7 7 6 6 7 7 7 9 9 9 10 9 7 6 10 13 15 15 15 14 11 9 9 10 13 15 15 15 16 15 13 14 14 11 7 5 5 6 6 4 4 3 3 3 3 5 2 2 0 4 5 5 5 6 7 7 6 5 5 4 4 4 5 5 5 6 6 7 8 9 8 8 9 10 10 10
4 7 9 10 8 6 6 7 7 7 7 6 5 6 7 8 8 6 6 9 10 8 6 8 12 15 17 17 15 14 13 12 12 14 17 18 17 16 15 13 15 14 10 7 6 6 6 6 5 5 5 4 4 4 6 4 3 1 2 4 7 7 6 7 7 6 5 5 4 4 5 5 4 4 5 6 6 8 8 8 8 9 10 9 9
5 5 7 9 8 6 5 6 6 7 8 8 7 6 6 8 8 5 5 7 9 8 6 6 9 10 11 13 16 17 16 13 12 14 17 18 17 16 16 15 14 12 8 7 7 7 7 7 6 7 7 6 5 5 5 6 5 2 0 2 6 8 8 7 7 6 5 5 5 5 5 5 5 4 5 6 6 7 7 8 8 8 9 9 9
9 7 7 8 8 7 7 7 8 7 7 7 8 8 8 8 8 8 7 8 9 8 6 7 9 8 6 9 15 16 13 10 9 10 11 11 12 13 14 14 12 9 8 8 8 7 8 6 5 6 7 6 6 7 6 5 5 4 3 3 4 8 10 8 7 7 6 5 5 5 5 5 5 5 5 5 5 5 6 7 7 8 9 9 9
10 9 9 9 9 9 9 9 10 9 9 8 8 9 8 8 8 9 8 9 10 10 9 8 7 7 6 6 12 15 12 10 9 9 10 10 9 10 10 10 10 10 10 9 7 6 7 7 6 6 7 7 7 8 7 6 5 4 2 2 3 7 11 11 8 8 8 7 7 7 6 6 6 6 6 5 5 5 6 6 7 8 9 10 10
10 10 10 10 10 10 10 10 10 11 11 12 11 10 9 7 7 8 8 8 9 10 11 10 8 7 6 5 9 14 16 14 11 10 12 12 11 10 10 10 10 11 11 10 8 6 6 8 7 7 8 8 7 7 8 8 6 4 3 3 3 3 7 11 11 9 8 8 8 8 8 8 8 7 7 6 6 6 6 7 8 9 9 8 8
10 10 10 10 10 11 10 10 11 11 11 12 12 11 10 10 9 9 9 9 9 10 10 11 9 8 8 7 8 12 16 16 13 12 13 12 10 10 11 10 9 8 8 8 8 7 7 8 8 8 8 7 7 8 9 7 6 5 5 6 5 4 4 7 10 11 10 9 9 9 9 9 9 9 8 8 7 6 6 7 8 9 10 9 8
9 10 11 10 10 11 11 11 12 12 12 11 11 11 12 12 12 12 11 11 10 10 11 11 11 10 9 8 7 9 12 15 14 14 15 14 11 11 11 10 9 9 8 7 7 8 8 7 8 8 8 7 7 9 9 7 6 7 7 6 6 6 5 4 7 9 10 10 10 10 10 10 10 10 9 9 8 7 8 8 8 9 11 10 9
8 10 11 10 10 11 11 10 11 12 12 11 11 12 13 13 13 13 13 12 11 11 11 11 12 12 11 9 7 7 10 13 14 14 15 16 15 14 12 10 9 9 9 8 7 8 9 8 8 9 9 9 8 9 9 8 8 9 7 6 7 8 7 5 5 7 9 10 10 10 10 10 10 10 10 9 8 8 9 9 9 9 11 10 9
7 9 10 10 10 11 10 11 12 12 12 12 13 13 13 13 13 13 14 14 14 14 13 12 12 12 13 12 11 9 9 10 12 13 15 17 16 15 15 13 11 10 10 9 9 9 10 10 9 10 10 10 10 10 10 8 9 9 8 6 7 8 8 7 7 7 8 9 9 9 9 8 8 8 9 9 9 9 9 9 8 8 9 9 9
7 9 9 9 10 10 10 11 12 12 12 13 13 13 13 13 13 13 14 16 16 16 16 15 14 15 14 14 14 13 12 12 11 11 13 15 15 14 14 14 13 12 11 11 11 12 13 12 10 10 11 11 11 12 11 10 10 10 9 9 9 9 9 10 9 7 6 7 8 9 9 10 10 9 9 9 9 9 9 9 8 8 7 7 7
8 8 8 8 9 10 10 11 11 12 12 13 13 13 13 13 13 14 15 15 16 16 17 17 18 17 17 16 16 15 15 15 15 14 15 14 14 14 14 13 13 12 11 12 12 14 15 14 12 11 12 13 13 13 13 12 12 11 11 12 12 12 12 12 11 7 6 8 8 8 9 10 11 10 11 10 10 11 10 9 9 8 7 8 9
8 8 8 8 9 9 10 11 11 11 12 12 12 12 13 13 13 14 15 15 15 16 17 17 18 18 18 19 19 19 19 18 18 18 17 15 14 15 15 14 15 15 13 12 13 14 15 15 14 13 13 14 14 14 14 14 14 13 13 14 14 13 12 13 13 11 10 10 8 7 9 10 10 10 11 11 10 11 10 8 7 6 6 7 9
8 8 8 8 8 9 10 10 10 11 12 12 12 12 12 13 14 14 14 14 15 16 16 17 17 18 19 20 21 21 21 21 21 20 19 18 18 17 16 14 15 16 13 11 13 14 14 15 15 14 14 14 15 16 15 15 15 15 15 16 15 14 14 14 15 14 14 12 7 6 8 10 10 10 11 10 9 10 10 9 9 9 9 9 9
Wind_Direction
158 120 128 154 84 56 38 90 100 32 23 31 36 19 10 45 88 85 76 78 77 80 89 81 59 44 35 40 48 49 44 34 30 26 24 17 2 10 28 16 3 7 9 11 9 9 12 0 341 336 334 345 355 341 323 323 325 312 303 314 330 339 11 38 326 317 319 330 333 323 325 335 332 328 333 329 315 316 327 335 333 324 315 302 291
153 110 105 69 61 47 33 28 25 31 28 20 33 43 9 14 56 79 89 91 74 74 88 70 53 53 52 49 48 45 41 37 33 27 24 20 13 16 20 11 6 6 8 17 15 6 4 355 345 342 345 351 346 336 343 346 336 332 346 5 5 360 6 15 14 5 343 341 340 327 323 329 324 323 330 329 325 327 325 323 321 314 305 296 293
147 106 138 232 46 48 45 34 24 31 32 23 38 45 15 20 46 50 54 71 65 66 72 62 58 72 74 64 54 47 45 43 37 29 26 24 18 18 17 11 8 5 9 16 9 3 4 355 351 352 354 358 352 351 0 358 350 348 350 359 2 354 357 10 13 6 356 350 344 331 325 331 331 327 326 322 319 317 311 309 310 305 297 289 284
137 148 204 37 38 36 36 35 31 34 38 52 80 85 47 62 69 55 40 52 56 62 68 63 60 65 70 65 55 50 48 45 39 30 26 23 17 17 16 13 10 8 12 11 4 9 9 354 355 7 10 9 3 360 3 357 354 358 358 358 358 350 350 356 356 356 357 345 336 332 329 329 326 326 332 332 327 321 311 306 310 307 298 293 285
163 152 66 49 43 37 31 37 75 54 46 67 97 107 73 74 77 71 63 58 52 53 59 60 57 55 57 58 54 51 50 49 42 30 23 19 15 13 15 15 12 11 11 8 12 22 13 355 1 22 22 12 4 1 360 355 353 357 1 2 359 353 351 350 344 343 343 334 326 326 327 325 325 333 341 337 331 328 321 314 317 319 313 310 302
80 56 49 44 35 32 36 39 79 79 68 79 88 88 83 82 79 74 76 78 68 60 65 67 70 64 52 49 57 59 57 51 39 29 21 14 9 9 17 19 12 12 11 13 24 26 13 6 16 26 26 16 8 3 358 355 355 356 360 3 359 352 350 347 342 338 336 335 338 341 337 332 332 334 335 333 325 317 311 307 311 321 325 324 321
51 52 44 17 349 74 59 37 68 85 95 98 92 92 103 104 97 94 92 85 75 91 102 91 89 82 60 49 69 75 63 46 33 26 16 6 6 10 17 16 12 19 17 15 24 22 5 7 20 25 26 20 12 6 359 357 356 356 360 359 352 348 346 343 339 336 334 334 343 345 329 321 325 328 328 333 329 320 323 323 316 319 327 331 332
56 53 38 344 20 71 111 90 80 98 111 114 117 122 124 115 110 107 95 81 69 73 75 65 70 75 61 53 76 80 61 42 29 19 9 4 7 11 13 9 14 32 25 12 17 16 360 2 19 25 23 17 13 9 5 2 354 351 353 349 343 341 338 335 332 332 332 330 334 332 317 312 319 324 329 337 338 340 347 339 316 313 321 325 329
59 49 42 357 18 40 71 66 83 133 146 139 136 143 138 122 117 110 100 94 86 75 70 73 76 70 57 55 71 71 57 39 26 14 8 8 7 7 7 0 11 44 36 11 10 13 4 4 13 18 14 8 10 10 6 2 352 343 339 334 333 333 328 329 328 327 331 334 333 330 323 319 325 331 336 340 339 339 338 330 317 316 323 323 323
61 57 70 50 8 20 22 29 125 150 171 165 138 143 148 135 127 119 108 102 100 93 82 88 88 76 65 62 68 68 54 33 22 15 12 14 10 5 359 349 6 53 44 11 6 14 16 13 7 9 12 9 8 6 360 355 347 338 332 325 323 322 321 325 327 326 333 336 330 329 327 325 334 336 331 328 330 331 330 330 326 325 330 329 324
89 117 66 72 65 32 1 263 157 167 184 159 137 152 160 150 140 131 123 118 118 114 85 71 75 77 77 80 84 73 50 29 22 17 17 20 6 0 357 345 1 47 39 12 6 12 15 15 8 9 15 12 5 1 356 351 346 339 333 325 320 319 319 322 320 318 328 331 326 328 326 320 329 333 325 329 335 332 330 330 325 321 326 329 322
118 111 49 57 73 69 9 281 173 180 174 151 149 160 161 159 152 136 135 139 131 110 89 85 85 82 79 96 105 85 48 33 26 19 20 21 3 360 356 344 358 39 33 8 9 17 15 14 11 12 17 10 2 360 355 350 346 342 341 339 336 337 332 322 314 309 315 320 316 319 320 317 325 331 332 336 336 331 330 329 327 323 316 308 300
114 115 112 95 92 107 139 320 145 173 174 160 156 154 153 166 161 145 145 149 143 128 112 106 97 80 70 97 109 90 47 36 33 26 23 15 4 360 348 337 353 40 38 16 16 23 19 16 13 16 22 7 356 358 357 352 349 345 348 351 349 349 348 340 332 323 322 323 313 311 318 320 321 324 329 334 332 330 330 327 326 322 308 299 292
112 118 123 119 114 118 122 82 108 155 173 170 159 155 158 163 162 162 159 144 158 185 135 113 102 83 73 98 115 100 44 36 35 29 19 358 350 350 342 338 353 26 40 31 18 22 23 17 11 17 23 6 357 357 355 355 355 349 350 354 352 353 359 1 3 359 349 344 328 316 320 322 318 318 322 326 322 317 317 315 314 312 304 297 293
106 106 107 112 114 113 120 139 152 154 163 162 155 154 155 153 158 167 160 144 175 207 116 103 99 95 98 145 147 133 72 37 34 28 16 352 334 347 346 352 3 6 28 37 19 26 35 17 5 10 11 1 358 356 353 358 360 352 350 354 352 353 358 4 7 3 355 349 336 323 322 322 318 313 312 316 315 309 306 305 302 303 304 300 297
91 88 85 95 100 102 115 132 140 141 145 145 142 139 141 145 149 155 156 162 205 190 109 102 102 105 109 345 118 136 98 39 33 28 16 354 343 355 353 360 6 352 11 39 31 33 41 22 10 12 4 357 358 358 0 5 4 354 353 354 353 358 2 0 359 354 348 347 342 332 324 322 324 318 309 311 314 311 310 312 310 312 313 307 303
78 76 71 74 78 84 95 103 116 128 134 134 133 131 136 141 137 142 157 174 187 113 99 98 97 96 84 18 67 125 103 42 34 27 13 360 359 1 353 356 3 345 348 20 37 36 42 41 30 18 2 357 0 5 10 12 5 358 359 357 355 1 1 353 350 346 342 341 341 339 332 328 330 324 312 308 313 316 316 317 319 326 326 317 311
78 75 68 65 71 79 85 91 101 113 118 124 131 128 126 130 128 135 154 145 102 96 97 96 97 94 62 23 62 120 106 45 34 22 8 1 4 2 351 354 360 348 343 350 7 86 75 66 42 19 4 1 5 13 18 16 9 3 1 358 357 357 352 347 345 343 340 340 345 355 355 348 345 342 334 324 319 315 303 305 314 320 325 325 316
89 80 73 74 80 85 88 95 105 111 113 119 124 116 109 116 124 137 155 130 103 107 116 117 122 127 110 32 41 123 111 38 23 10 2 2 2 356 353 355 355 351 343 336 336 107 104 71 30 15 5 3 8 17 21 18 15 9 1 357 355 350 346 346 344 341 343 349 360 8 3 2 5 2 353 351 355 348 323 325 340 342 339 341 334
95 88 83 82 87 92 95 101 108 115 116 112 111 110 108 112 123 134 139 123 118 127 130 127 142 151 133 51 343 104 92 16 10 357 358 9 5 355 360 0 353 351 339 331 345 52 71 46 17 6 1 2 6 12 19 22 19 12 4 359 353 345 345 349 349 347 353 4 12 8 3 9 19 13 6 14 28 38 35 22 30 34 26 19 20
94 94 93 88 87 93 99 105 110 118 126 120 110 109 108 111 118 116 102 104 112 115 101 104 122 133 121 332 322 295 247 322 356 352 359 15 16 9 14 2 347 344 332 333 360 30 34 22 0 351 352 359 4 4 6 18 20 12 8 6 358 353 352 352 350 352 6 17 22 17 14 23 30 27 30 36 40 48 52 48 51 55 50 46 44
92 98 97 91 88 92 97 104 109 120 132 125 115 110 108 108 112 107 98 100 108 118 111 102 125 169 213 278 301 253 218 244 316 340 4 14 13 24 27 10 346 334 333 349 11 18 14 6 346 340 348 1 9 4 2 15 18 11 14 15 9 5 4 1 2 5 13 24 30 27 27 38 44 44 45 48 50 55 55 53 58 61 59 57 55
91 99 99 94 91 92 98 103 106 117 125 120 117 115 113 118 122 119 120 124 128 135 133 132 264 261 254 263 279 237 200 218 288 324 8 5 339 21 40 34 24 354 343 4 19 9 358 346 333 340 354 4 9 7 11 27 27 17 18 19 13 12 14 14 15 16 20 28 31 29 34 46 51 50 49 50 56 62 61 59 60 55 50 52 56
97 103 101 99 97 97 107 110 110 123 128 123 122 124 128 138 141 139 145 158 169 174 181 207 232 246 249 250 253 217 199 217 258 279 343 345 311 291 39 40 32 15 7 19 15 357 345 330 331 346 357 358 3 6 12 27 32 25 20 17 12 15 18 18 18 19 25 31 29 28 35 42 44 47 50 52 58 63 62 60 58 53 47 45 49
106 111 110 110 107 109 121 126 131 137 135 131 134 143 153 157 158 163 173 186 199 205 212 218 221 225 225 225 220 195 188 210 251 253 305 324 296 271 329 28 22 11 9 9 356 350 343 335 341 353 356 356 3 10 15 23 30 28 21 16 14 16 17 18 19 21 25 30 29 29 32 38 46 52 52 53 58 59 59 58 58 57 54 49 47
109 114 119 121 121 130 140 148 153 151 152 158 161 168 176 175 180 192 205 217 216 213 221 229 231 229 217 205 194 177 171 190 239 228 274 320 294 279 295 345 351 331 301 285 306 331 333 335 347 356 357 356 0 14 24 26 27 29 26 21 19 16 14 19 24 24 24 25 28 32 35 41 52 56 51 51 56 57 57 58 60 63 65 60 53
108 120 131 134 141 155 162 172 171 165 175 185 180 184 199 205 196 196 228 261 234 211 219 237 255 267 217 173 162 162 166 185 199 178 153 345 320 305 300 326 343 330 303 273 276 302 309 313 330 346 356 4 4 11 31 37 34 35 36 33 27 18 15 21 28 29 27 26 28 35 41 43 50 54 51 49 54 57 60 62 63 65 66 65 61
93 122 137 143 161 174 173 192 193 180 191 212 231 209 207 192 150 161 256 345 1 44 5 11 9 4 18 95 151 174 182 179 171 166 172 185 86 36 310 328 345 338 327 265 239 262 285 295 299 305 338 20 19 15 29 40 42 42 43 42 34 21 16 23 28 28 29 30 32 38 43 43 46 53 55 50 49 55 62 65 67 68 66 64 63
67 103 148 169 190 200 197 207 212 199 197 218 277 319 352 71 94 114 63 17 21 17 14 22 16 5 11 15 352 205 167 161 164 172 183 117 84 66 331 331 262 240 270 277 271 275 284 292 304 315 359 27 24 22 22 27 35 43 46 47 41 28 20 22 23 22 26 34 36 39 43 44 44 50 56 53 49 51 58 63 66 69 68 65 62
20 13 226 233 221 222 235 218 212 224 220 217 250 269 264 244 130 127 43 14 8 355 356 360 353 358 15 356 344 359 134 154 164 178 154 77 54 42 69 190 197 212 254 282 293 291 283 286 323 7 12 14 22 24 20 19 27 34 38 48 48 36 25 19 16 15 24 36 40 42 47 50 49 50 53 55 52 51 55 60 65 69 72 72 69
355 8 30 348 317 265 273 263 194 215 233 241 257 252 239 237 250 271 299 319 320 317 316 315 328 341 310 272 323 1 153 167 168 164 124 87 48 36 75 193 213 241 267 287 301 295 282 279 336 0 358 12 22 18 8 10 24 28 30 47 55 44 30 21 15 13 20 32 39 44 49 54 56 54 56 60 57 50 49 56 64 70 74 75 74
1 7 12 2 3 300 288 305 328 260 251 248 263 254 223 216 233 250 261 271 274 276 277 273 277 289 264 257 266 274 217 191 180 171 127 90 50 24 105 200 231 266 284 300 308 302 287 254 14 346 353 12 21 19 5 1 15 30 34 49 59 49 35 25 17 16 22 27 33 41 46 52 59 61 63 67 65 53 48 56 66 75 78 76 76
19 12 3 352 360 342 310 309 309 298 291 278 272 267 252 243 237 227 230 241 248 249 248 247 247 241 235 241 250 258 246 215 198 188 153 120 334 321 293 237 244 274 288 296 303 304 301 143 117 4 358 354 5 26 12 354 3 25 31 41 61 62 46 29 19 20 26 27 30 38 44 49 55 58 62 71 72 62 55 59 65 74 81 81 81
32 23 16 3 356 348 330 314 301 291 281 269 267 264 265 272 271 236 219 226 233 240 243 238 231 224 222 229 236 239 237 228 218 210 210 243 279 295 290 273 263 266 271 275 284 292 300 325 128 146 293 334 357 14 359 350 16 35 27 25 53 72 58 39 26 22 26 30 30 35 45 50 52 56 62 69 73 68 61 63 68 74 82 88 89
43 33 24 14 351 331 323 322 320 319 316 285 269 266 268 270 268 254 242 236 230 234 242 241 230 218 217 223 225 227 231 230 227 226 238 259 273 283 289 289 282 268 259 255 256 266 280 291 199 188 171 84 357 336 335 8 38 45 25 12 45 87 74 59 50 38 32 34 32 33 46 53 52 57 66 70 70 67 63 64 69 74 82 90 92
41 32 17 9 1 340 334 344 340 329 323 312 293 284 279 276 273 267 264 271 269 248 236 234 226 216 214 218 217 216 223 226 228 234 244 255 265 274 280 284 284 274 261 247 239 245 266 269 223 183 150 145 233 293 298 39 63 40 1 1 46 106 89 75 71 63 51 44 42 43 49 52 51 59 70 74 76 76 73 73 74 78 85 93 95
36 31 19 13 18 8 358 360 350 331 326 325 313 301 293 291 293 292 286 281 277 256 214 209 213 215 217 217 213 208 212 221 228 237 245 251 259 266 272 277 281 282 276 253 230 238 268 260 215 177 178 183 195 269 271 208 111 202 246 214 141 119 105 92 83 76 72 65 59 57 55 51 52 62 76 83 85 85 82 81 80 82 86 91 94
41 38 32 28 24 14 7 6 355 339 335 331 314 302 296 289 287 290 291 289 284 268 217 199 207 219 228 226 216 207 209 220 229 237 244 248 251 256 263 268 268 270 276 274 255 254 268 259 220 188 199 184 162 236 264 228 117 279 251 204 161 124 108 103 92 83 86 88 78 70 70 64 59 68 81 87 87 84 80 79 82 85 85 86 89
46 38 31 29 26 13 3 359 350 340 340 339 322 307 303 296 287 285 295 299 295 283 245 211 215 229 236 231 216 205 207 218 233 244 248 248 248 250 254 253 251 255 264 273 267 258 260 255 226 196 201 197 186 230 263 243 186 205 268 196 166 136 112 109 103 91 96 107 100 87 87 87 78 74 80 83 83 85 86 83 84 90 92 93 95
27 27 17 17 16 3 346 352 356 352 349 346 339 333 326 316 310 305 300 294 289 281 265 247 245 249 243 226 212 205 207 219 239 253 252 246 241 237 236 237 245 255 265 268 266 262 259 253 223 196 201 210 206 218 253 260 234 206 228 210 171 140 123 118 115 110 113 117 111 103 103 106 104 93 89 89 91 96 101 101 101 105 108 108 107
8 11 5 2 5 359 352 359 3 354 345 344 345 345 342 336 331 328 320 312 305 297 286 270 265 273 272 237 218 210 208 220 245 262 262 252 240 231 228 233 245 258 262 261 259 256 254 251 231 205 202 205 211 216 227 251 258 238 223 239 190 145 137 133 125 127 134 127 117 117 121 123 123 118 110 108 112 118 122 125 126 125 120 119 123
356 3 1 358 1 4 1 1 359 351 347 350 350 343 336 333 334 333 330 330 325 317 312 299 285 295 310 263 223 214 216 231 249 263 269 271 268 259 250 248 249 250 251 254 257 254 248 243 241 236 224 214 221 231 225 227 251 260 232 230 211 158 147 142 137 141 146 144 140 140 138 136 135 130 128 132 136 138 142 145 146 144 141 143 148
352 358 359 1 7 5 1 0 359 356 352 347 339 332 324 321 325 328 328 328 327 324 323 319 310 310 316 286 235 230 237 244 250 258 261 263 268 271 269 263 256 247 239 238 242 250 250 243 241 245 239 223 221 239 238 224 225 241 230 221 238 200 155 146 146 150 152 155 158 154 149 150 149 143 146 154 154 152 156 156 152 149 147 146 147
356 357 355 3 8 3 0 5 4 356 349 342 337 339 340 336 334 336 335 332 332 331 328 325 319 310 302 292 272 258 252 248 249 259 264 264 265 267 267 268 267 253 227 216 222 233 242 248 246 240 236 226 222 238 248 233 209 212 219 210 210 220 187 159 154 155 158 163 166 163 161 162 159 153 155 160 161 163 171 171 164 154 142 128 123
2 359 354 2 7 0 360 8 4 353 347 344 345 351 353 348 346 347 346 343 343 339 332 328 326 319 307 297 288 271 257 252 253 259 262 261 260 259 255 255 258 248 220 208 224 230 228 240 251 241 231 228 226 233 244 239 214 213 223 214 200 206 213 187 163 160 162 164 167 169 173 174 170 164 164 165 161 157 157 159 158 145 131 123 125
3 4 355 359 4 359 360 6 1 351 349 354 356 355 353 352 352 349 345 345 348 345 339 334 331 327 322 315 302 276 258 257 261 265 269 271 272 271 265 257 247 232 212 209 229 235 225 231 247 244 232 227 226 228 235 235 224 224 233 228 209 202 199 187 175 173 171 168 167 171 177 177 171 166 165 161 152 142 137 135 131 124 121 127 141
6 8 359 360 2 360 2 6 0 354 357 4 2 356 353 354 353 348 347 352 356 351 346 343 341 337 334 331 324 311 288 276 272 275 281 284 284 286 285 273 253 229 208 203 217 229 226 228 240 242 236 231 228 227 231 232 226 227 233 225 204 195 189 185 192 200 192 178 171 171 172 167 159 156 154 146 137 132 130 127 127 135 144 150 161
16 8 360 3 4 1 5 7 3 1 7 7 0 356 356 356 353 353 357 359 357 352 349 350 351 350 346 341 336 332 325 315 305 298 296 295 294 298 298 283 258 236 216 203 207 219 221 222 230 235 234 233 230 226 227 230 227 226 227 220 206 198 193 191 197 207 200 182 177 176 172 166 164 162 156 148 146 148 147 146 150 158 161 162 168
18 3 360 8 8 4 8 9 6 6 9 5 358 357 359 357 357 1 2 358 354 353 354 353 351 348 345 343 343 343 343 341 335 329 323 317 310 305 299 289 276 266 246 220 212 218 218 217 223 228 227 230 232 227 225 229 230 227 224 219 212 208 203 199 198 197 184 177 185 189 179 170 167 164 162 163 166 166 161 159 162 164 168 182 189
9 1 5 9 7 7 10 10 9 10 10 5 358 357 360 1 1 2 360 356 355 356 354 351 350 347 347 349 352 353 353 352 347 341 338 336 329 317 306 297 298 296 275 234 218 220 218 215 221 227 226 226 230 229 227 228 230 229 227 223 217 211 207 204 202 199 189 182 189 199 189 175 167 169 174 177 174 167 161 154 155 166 192 213 214
3 7 8 4 7 12 11 9 12 12 8 3 360 360 3 5 2 359 358 359 359 357 352 351 352 351 351 352 354 353 352 350 347 344 343 343 341 336 326 314 311 310 294 254 229 224 218 213 217 225 227 227 228 228 228 229 228 228 230 229 224 217 208 203 205 208 203 196 194 196 188 182 180 181 183 183 176 169 166 162 166 185 213 229 231